M I D A S
Marine Information and Data Acquisition System
Tripno 1366 of the Zeeleeuw from 2007-11-27 07:43:13 to 2007-11-27 16:04:24
Back to CruiseResearch ActivitiesStationsMapUnderway DataData graphs

EquipmentUnitsComments
TimeDGPSUTC
LatitudeDGPSDM.mWGS84
LongitudeDGPSDM.mWGS84
SpeedMeteo Stationm/sRelative wind speed
DirectionMeteo StationdegRelative wind direction
TemperatureMeteo Stationdeg CelciusAir temperature
PressureMeteo StationPaAtmospheric pressure
HumidityMeteo Station%Relative humidity
Missing or incorrect values are displayed as -999
Metereological data collected by the RV Zeeleeuw from 2007-11-27 06:57:14 to 2007-11-27 16:15:21
                                                                                    Next 1000 lines
Time Latitude Longitude Speed Direction Temperature Pressure Humidity
2007-11-27 06:57:23 51°13.592 2°56.087 -999 -999 -999 -999 -999
2007-11-27 06:57:29 51°13.596 2°56.09 -999 -999 -999 -999 -999
2007-11-27 06:57:34 51°13.596 2°56.09 -999 -999 -999 -999 -999
2007-11-27 06:57:39 51°13.596 2°56.091 -999 -999 -999 -999 -999
2007-11-27 06:57:44 51°13.596 2°56.091 -999 -999 -999 -999 -999
2007-11-27 06:57:49 51°13.596 2°56.091 -999 -999 -999 -999 -999
2007-11-27 06:57:54 51°13.596 2°56.092 -999 -999 -999 -999 -999
2007-11-27 06:57:59 51°13.596 2°56.092 -999 -999 -999 -999 -999
2007-11-27 06:58:04 51°13.596 2°56.093 -999 -999 -999 -999 -999
2007-11-27 06:58:08 51°13.596 2°56.093 -999 -999 -999 -999 -999
2007-11-27 06:58:14 51°13.596 2°56.093 -999 -999 -999 -999 -999
2007-11-27 06:58:19 51°13.596 2°56.093 -999 -999 -999 -999 -999
2007-11-27 06:58:24 51°13.596 2°56.093 -999 -999 -999 -999 -999
2007-11-27 06:58:29 51°13.596 2°56.092 -999 -999 -999 -999 -999
2007-11-27 06:58:34 51°13.596 2°56.092 -999 -999 -999 -999 -999
2007-11-27 06:58:39 51°13.596 2°56.092 -999 -999 -999 -999 -999
2007-11-27 06:58:44 51°13.596 2°56.092 -999 -999 -999 -999 -999
2007-11-27 06:58:49 51°13.596 2°56.092 -999 -999 -999 -999 -999
2007-11-27 06:58:54 51°13.596 2°56.092 -999 -999 -999 -999 -999
2007-11-27 06:58:59 51°13.596 2°56.092 -999 -999 -999 -999 -999
2007-11-27 06:59:04 51°13.596 2°56.092 -999 -999 -999 -999 -999
2007-11-27 06:59:09 51°13.596 2°56.092 -999 -999 -999 -999 -999
2007-11-27 06:59:14 51°13.596 2°56.092 -999 -999 -999 -999 -999
2007-11-27 06:59:18 51°13.596 2°56.093 -999 -999 -999 -999 -999
2007-11-27 06:59:24 51°13.596 2°56.093 -999 -999 -999 -999 -999
2007-11-27 06:59:29 51°13.596 2°56.093 -999 -999 -999 -999 -999
2007-11-27 06:59:34 51°13.596 2°56.094 -999 -999 -999 -999 -999
2007-11-27 06:59:39 51°13.597 2°56.094 -999 -999 -999 -999 -999
2007-11-27 06:59:44 51°13.597 2°56.094 -999 -999 -999 -999 -999
2007-11-27 06:59:49 51°13.597 2°56.093 -999 -999 -999 -999 -999
2007-11-27 06:59:54 51°13.597 2°56.093 -999 -999 -999 -999 -999
2007-11-27 06:59:59 51°13.597 2°56.093 -999 -999 -999 -999 -999
2007-11-27 07:00:04 51°13.597 2°56.094 -999 -999 -999 -999 -999
2007-11-27 07:00:09 51°13.597 2°56.094 -999 -999 -999 -999 -999
2007-11-27 07:00:14 51°13.597 2°56.094 -999 -999 -999 -999 -999
2007-11-27 07:00:19 51°13.597 2°56.094 -999 -999 -999 -999 -999
2007-11-27 07:00:24 51°13.597 2°56.094 -999 -999 -999 -999 -999
2007-11-27 07:00:29 51°13.597 2°56.094 -999 -999 -999 -999 -999
2007-11-27 07:00:34 51°13.597 2°56.094 -999 -999 -999 -999 -999
2007-11-27 07:00:39 51°13.597 2°56.094 -999 -999 -999 -999 -999
2007-11-27 07:00:44 51°13.598 2°56.094 -999 -999 -999 -999 -999
2007-11-27 07:00:49 51°13.598 2°56.094 -999 -999 -999 -999 -999
2007-11-27 07:00:54 51°13.598 2°56.094 -999 -999 -999 -999 -999
2007-11-27 07:00:59 51°13.598 2°56.094 -999 -999 -999 -999 -999
2007-11-27 07:01:04 51°13.598 2°56.094 -999 -999 -999 -999 -999
2007-11-27 07:01:08 51°13.598 2°56.093 -999 -999 -999 -999 -999
2007-11-27 07:01:14 51°13.598 2°56.093 -999 -999 -999 -999 -999
2007-11-27 07:01:19 51°13.598 2°56.094 -999 -999 -999 -999 -999
2007-11-27 07:01:24 51°13.598 2°56.094 -999 -999 -999 -999 -999
2007-11-27 07:01:29 51°13.598 2°56.093 -999 -999 -999 -999 -999
2007-11-27 07:01:34 51°13.598 2°56.093 -999 -999 -999 -999 -999
2007-11-27 07:01:39 51°13.598 2°56.093 -999 -999 -999 -999 -999
2007-11-27 07:01:44 51°13.598 2°56.093 -999 -999 -999 -999 -999
2007-11-27 07:01:47 51°13.598 2°56.093 -999 -999 -999 -999 -999
2007-11-27 07:01:53 51°13.598 2°56.093 -999 -999 -999 -999 -999
2007-11-27 07:01:59 51°13.598 2°56.093 -999 -999 -999 -999 -999
2007-11-27 07:02:04 51°13.598 2°56.093 -999 -999 -999 -999 -999
2007-11-27 07:02:09 51°13.598 2°56.093 -999 -999 -999 -999 -999
2007-11-27 07:02:14 51°13.598 2°56.093 -999 -999 -999 -999 -999
2007-11-27 07:02:19 51°13.598 2°56.093 -999 -999 -999 -999 -999
2007-11-27 07:02:24 51°13.598 2°56.093 -999 -999 -999 -999 -999
2007-11-27 07:02:29 51°13.598 2°56.093 -999 -999 -999 -999 -999
2007-11-27 07:02:34 51°13.599 2°56.094 -999 -999 -999 -999 -999
2007-11-27 07:02:39 51°13.599 2°56.094 -999 -999 -999 -999 -999
2007-11-27 07:02:44 51°13.599 2°56.094 -999 -999 -999 -999 -999
2007-11-27 07:02:48 51°13.598 2°56.094 -999 -999 -999 -999 -999
2007-11-27 07:02:54 51°13.598 2°56.094 -999 -999 -999 -999 -999
2007-11-27 07:02:58 51°13.598 2°56.094 -999 -999 -999 -999 -999
2007-11-27 07:03:04 51°13.598 2°56.094 -999 -999 -999 -999 -999
2007-11-27 07:03:09 51°13.598 2°56.093 -999 -999 -999 -999 -999
2007-11-27 07:03:14 51°13.598 2°56.094 -999 -999 -999 -999 -999
2007-11-27 07:03:19 51°13.598 2°56.094 -999 -999 -999 -999 -999
2007-11-27 07:03:24 51°13.598 2°56.094 -999 -999 -999 -999 -999
2007-11-27 07:03:29 51°13.598 2°56.094 -999 -999 -999 -999 -999
2007-11-27 07:03:34 51°13.598 2°56.094 -999 -999 -999 -999 -999
2007-11-27 07:03:38 51°13.598 2°56.094 -999 -999 -999 -999 -999
2007-11-27 07:03:44 51°13.598 2°56.094 -999 -999 -999 -999 -999
2007-11-27 07:03:48 51°13.598 2°56.095 -999 -999 -999 -999 -999
2007-11-27 07:03:54 51°13.598 2°56.095 -999 -999 -999 -999 -999
2007-11-27 07:03:58 51°13.598 2°56.096 -999 -999 -999 -999 -999
2007-11-27 07:04:04 51°13.598 2°56.096 -999 -999 -999 -999 -999
2007-11-27 07:04:08 51°13.599 2°56.096 -999 -999 -999 -999 -999
2007-11-27 07:04:14 51°13.599 2°56.097 -999 -999 -999 -999 -999
2007-11-27 07:04:19 51°13.598 2°56.095 -999 -999 -999 -999 -999
2007-11-27 07:04:24 51°13.598 2°56.094 -999 -999 -999 -999 -999
2007-11-27 07:04:29 51°13.598 2°56.094 -999 -999 -999 -999 -999
2007-11-27 07:04:34 51°13.598 2°56.094 -999 -999 -999 -999 -999
2007-11-27 07:04:39 51°13.598 2°56.094 -999 -999 -999 -999 -999
2007-11-27 07:04:44 51°13.598 2°56.094 -999 -999 -999 -999 -999
2007-11-27 07:04:49 51°13.598 2°56.094 -999 -999 -999 -999 -999
2007-11-27 07:04:54 51°13.598 2°56.094 -999 -999 -999 -999 -999
2007-11-27 07:04:59 51°13.598 2°56.094 -999 -999 -999 -999 -999
2007-11-27 07:05:04 51°13.598 2°56.094 -999 -999 -999 -999 -999
2007-11-27 07:05:09 51°13.598 2°56.094 -999 -999 -999 -999 -999
2007-11-27 07:05:14 51°13.598 2°56.094 -999 -999 -999 -999 -999
2007-11-27 07:05:18 51°13.598 2°56.094 -999 -999 -999 -999 -999
2007-11-27 07:05:24 51°13.598 2°56.095 -999 -999 -999 -999 -999
2007-11-27 07:05:28 51°13.598 2°56.095 -999 -999 -999 -999 -999
2007-11-27 07:05:34 51°13.598 2°56.096 -999 -999 -999 -999 -999
2007-11-27 07:05:38 51°13.598 2°56.096 -999 -999 -999 -999 -999
2007-11-27 07:05:43 51°13.598 2°56.096 -999 -999 -999 -999 -999
2007-11-27 07:05:48 51°13.598 2°56.096 -999 -999 -999 -999 -999
2007-11-27 07:05:54 51°13.598 2°56.095 -999 -999 -999 -999 -999
2007-11-27 07:05:59 51°13.598 2°56.095 -999 -999 -999 -999 -999
2007-11-27 07:06:04 51°13.598 2°56.095 -999 -999 -999 -999 -999
2007-11-27 07:06:09 51°13.598 2°56.095 -999 -999 -999 -999 -999
2007-11-27 07:06:14 51°13.598 2°56.095 -999 -999 -999 -999 -999
2007-11-27 07:06:19 51°13.598 2°56.095 -999 -999 -999 -999 -999
2007-11-27 07:06:24 51°13.598 2°56.095 -999 -999 -999 -999 -999
2007-11-27 07:06:29 51°13.598 2°56.095 -999 -999 -999 -999 -999
2007-11-27 07:06:34 51°13.598 2°56.095 -999 -999 -999 -999 -999
2007-11-27 07:06:39 51°13.598 2°56.095 -999 -999 -999 -999 -999
2007-11-27 07:06:44 51°13.599 2°56.095 -999 -999 -999 -999 -999
2007-11-27 07:06:49 51°13.599 2°56.095 -999 -999 -999 -999 -999
2007-11-27 07:06:54 51°13.599 2°56.095 -999 -999 -999 -999 -999
2007-11-27 07:06:59 51°13.599 2°56.094 -999 -999 -999 -999 -999
2007-11-27 07:07:04 51°13.599 2°56.094 -999 -999 -999 -999 -999
2007-11-27 07:07:08 51°13.599 2°56.094 -999 -999 -999 -999 -999
2007-11-27 07:07:14 51°13.599 2°56.094 -999 -999 -999 -999 -999
2007-11-27 07:07:19 51°13.599 2°56.094 -999 -999 -999 -999 -999
2007-11-27 07:07:24 51°13.599 2°56.094 -999 -999 -999 -999 -999
2007-11-27 07:07:29 51°13.599 2°56.094 -999 -999 -999 -999 -999
2007-11-27 07:07:34 51°13.599 2°56.094 -999 -999 -999 -999 -999
2007-11-27 07:07:39 51°13.599 2°56.094 -999 -999 -999 -999 -999
2007-11-27 07:07:44 51°13.598 2°56.093 -999 -999 -999 -999 -999
2007-11-27 07:07:49 51°13.598 2°56.092 -999 -999 -999 -999 -999
2007-11-27 07:07:54 51°13.598 2°56.092 -999 -999 -999 -999 -999
2007-11-27 07:07:59 51°13.598 2°56.092 -999 -999 -999 -999 -999
2007-11-27 07:08:04 51°13.598 2°56.093 -999 -999 -999 -999 -999
2007-11-27 07:08:09 51°13.598 2°56.092 -999 -999 -999 -999 -999
2007-11-27 07:08:14 51°13.598 2°56.092 -999 -999 -999 -999 -999
2007-11-27 07:08:19 51°13.598 2°56.092 -999 -999 -999 -999 -999
2007-11-27 07:08:24 51°13.598 2°56.093 -999 -999 -999 -999 -999
2007-11-27 07:08:29 51°13.598 2°56.093 -999 -999 -999 -999 -999
2007-11-27 07:08:34 51°13.598 2°56.093 -999 -999 -999 -999 -999
2007-11-27 07:08:39 51°13.598 2°56.093 -999 -999 -999 -999 -999
2007-11-27 07:08:44 51°13.598 2°56.093 -999 -999 -999 -999 -999
2007-11-27 07:08:49 51°13.598 2°56.093 -999 -999 -999 -999 -999
2007-11-27 07:08:54 51°13.598 2°56.093 -999 -999 -999 -999 -999
2007-11-27 07:08:59 51°13.598 2°56.093 -999 -999 -999 -999 -999
2007-11-27 07:09:04 51°13.598 2°56.094 -999 -999 -999 -999 -999
2007-11-27 07:09:09 51°13.598 2°56.094 -999 -999 -999 -999 -999
2007-11-27 07:09:14 51°13.598 2°56.094 -999 -999 -999 -999 -999
2007-11-27 07:09:19 51°13.598 2°56.095 -999 -999 -999 -999 -999
2007-11-27 07:09:24 51°13.598 2°56.095 -999 -999 -999 -999 -999
2007-11-27 07:09:29 51°13.598 2°56.095 -999 -999 -999 -999 -999
2007-11-27 07:09:34 51°13.598 2°56.095 -999 -999 -999 -999 -999
2007-11-27 07:09:39 51°13.598 2°56.096 -999 -999 -999 -999 -999
2007-11-27 07:09:44 51°13.599 2°56.096 -999 -999 -999 -999 -999
2007-11-27 07:09:49 51°13.599 2°56.096 -999 -999 -999 -999 -999
2007-11-27 07:09:54 51°13.599 2°56.096 -999 -999 -999 -999 -999
2007-11-27 07:09:59 51°13.599 2°56.096 -999 -999 -999 -999 -999
2007-11-27 07:10:04 51°13.599 2°56.096 -999 -999 -999 -999 -999
2007-11-27 07:10:09 51°13.598 2°56.096 -999 -999 -999 -999 -999
2007-11-27 07:10:14 51°13.598 2°56.096 -999 -999 -999 -999 -999
2007-11-27 07:10:19 51°13.598 2°56.096 -999 -999 -999 -999 -999
2007-11-27 07:10:24 51°13.598 2°56.096 -999 -999 -999 -999 -999
2007-11-27 07:10:29 51°13.598 2°56.096 -999 -999 -999 -999 -999
2007-11-27 07:10:34 51°13.598 2°56.096 -999 -999 -999 -999 -999
2007-11-27 07:10:39 51°13.598 2°56.096 -999 -999 -999 -999 -999
2007-11-27 07:10:44 51°13.598 2°56.096 -999 -999 -999 -999 -999
2007-11-27 07:10:49 51°13.598 2°56.096 -999 -999 -999 -999 -999
2007-11-27 07:10:54 51°13.598 2°56.096 -999 -999 -999 -999 -999
2007-11-27 07:10:59 51°13.598 2°56.096 -999 -999 -999 -999 -999
2007-11-27 07:11:04 51°13.598 2°56.096 -999 -999 -999 -999 -999
2007-11-27 07:11:09 51°13.598 2°56.096 -999 -999 -999 -999 -999
2007-11-27 07:11:14 51°13.598 2°56.096 -999 -999 -999 -999 -999
2007-11-27 07:11:19 51°13.598 2°56.096 -999 -999 -999 -999 -999
2007-11-27 07:11:24 51°13.598 2°56.096 -999 -999 -999 -999 -999
2007-11-27 07:11:29 51°13.598 2°56.097 -999 -999 -999 -999 -999
2007-11-27 07:11:34 51°13.598 2°56.096 -999 -999 -999 -999 -999
2007-11-27 07:11:39 51°13.598 2°56.096 -999 -999 -999 -999 -999
2007-11-27 07:11:44 51°13.598 2°56.096 -999 -999 -999 -999 -999
2007-11-27 07:11:49 51°13.598 2°56.096 -999 -999 -999 -999 -999
2007-11-27 07:11:53 51°13.598 2°56.096 -999 -999 -999 -999 -999
2007-11-27 07:11:59 51°13.598 2°56.096 -999 -999 -999 -999 -999
2007-11-27 07:12:04 51°13.598 2°56.096 -999 -999 -999 -999 -999
2007-11-27 07:12:09 51°13.598 2°56.096 -999 -999 -999 -999 -999
2007-11-27 07:12:14 51°13.598 2°56.096 -999 -999 -999 -999 -999
2007-11-27 07:12:19 51°13.598 2°56.096 -999 -999 -999 -999 -999
2007-11-27 07:12:24 51°13.598 2°56.096 -999 -999 -999 -999 -999
2007-11-27 07:12:29 51°13.598 2°56.095 -999 -999 -999 -999 -999
2007-11-27 07:12:34 51°13.598 2°56.095 -999 -999 -999 -999 -999
2007-11-27 07:12:39 51°13.598 2°56.095 -999 -999 -999 -999 -999
2007-11-27 07:12:44 51°13.598 2°56.095 -999 -999 -999 -999 -999
2007-11-27 07:12:49 51°13.598 2°56.095 -999 -999 -999 -999 -999
2007-11-27 07:12:54 51°13.598 2°56.095 -999 -999 -999 -999 -999
2007-11-27 07:12:59 51°13.598 2°56.095 -999 -999 -999 -999 -999
2007-11-27 07:13:04 51°13.599 2°56.094 -999 -999 -999 -999 -999
2007-11-27 07:13:09 51°13.599 2°56.094 -999 -999 -999 -999 -999
2007-11-27 07:13:14 51°13.599 2°56.094 -999 -999 -999 -999 -999
2007-11-27 07:13:19 51°13.6 2°56.094 -999 -999 -999 -999 -999
2007-11-27 07:13:24 51°13.6 2°56.093 -999 -999 -999 -999 -999
2007-11-27 07:13:29 51°13.6 2°56.093 -999 -999 -999 -999 -999
2007-11-27 07:13:34 51°13.6 2°56.093 -999 -999 -999 -999 -999
2007-11-27 07:13:39 51°13.6 2°56.093 -999 -999 -999 -999 -999
2007-11-27 07:13:44 51°13.6 2°56.093 -999 -999 -999 -999 -999
2007-11-27 07:13:49 51°13.6 2°56.093 -999 -999 -999 -999 -999
2007-11-27 07:13:54 51°13.6 2°56.093 -999 -999 -999 -999 -999
2007-11-27 07:13:59 51°13.601 2°56.093 -999 -999 -999 -999 -999
2007-11-27 07:14:04 51°13.6 2°56.094 -999 -999 -999 -999 -999
2007-11-27 07:14:09 51°13.599 2°56.094 -999 -999 -999 -999 -999
2007-11-27 07:14:14 51°13.599 2°56.094 -999 -999 -999 -999 -999
2007-11-27 07:14:19 51°13.599 2°56.094 -999 -999 -999 -999 -999
2007-11-27 07:14:24 51°13.599 2°56.094 -999 -999 -999 -999 -999
2007-11-27 07:14:29 51°13.599 2°56.093 -999 -999 -999 -999 -999
2007-11-27 07:14:34 51°13.599 2°56.093 -999 -999 -999 -999 -999
2007-11-27 07:14:39 51°13.599 2°56.093 -999 -999 -999 -999 -999
2007-11-27 07:14:44 51°13.599 2°56.093 -999 -999 -999 -999 -999
2007-11-27 07:14:49 51°13.599 2°56.093 -999 -999 -999 -999 -999
2007-11-27 07:14:54 51°13.599 2°56.093 -999 -999 -999 -999 -999
2007-11-27 07:14:59 51°13.599 2°56.093 -999 -999 -999 -999 -999
2007-11-27 07:15:04 51°13.599 2°56.093 -999 -999 -999 -999 -999
2007-11-27 07:15:09 51°13.598 2°56.093 -999 -999 -999 -999 -999
2007-11-27 07:15:14 51°13.598 2°56.093 -999 -999 -999 -999 -999
2007-11-27 07:15:19 51°13.598 2°56.093 -999 -999 -999 -999 -999
2007-11-27 07:15:24 51°13.598 2°56.094 -999 -999 -999 -999 -999
2007-11-27 07:15:29 51°13.598 2°56.094 -999 -999 -999 -999 -999
2007-11-27 07:15:34 51°13.598 2°56.094 -999 -999 -999 -999 -999
2007-11-27 07:15:39 51°13.598 2°56.093 -999 -999 -999 -999 -999
2007-11-27 07:15:44 51°13.598 2°56.093 -999 -999 -999 -999 -999
2007-11-27 07:15:49 51°13.598 2°56.093 -999 -999 -999 -999 -999
2007-11-27 07:15:54 51°13.598 2°56.094 -999 -999 -999 -999 -999
2007-11-27 07:15:59 51°13.598 2°56.094 -999 -999 -999 -999 -999
2007-11-27 07:16:04 51°13.598 2°56.094 -999 -999 -999 -999 -999
2007-11-27 07:16:09 51°13.598 2°56.094 -999 -999 -999 -999 -999
2007-11-27 07:16:14 51°13.598 2°56.094 -999 -999 -999 -999 -999
2007-11-27 07:16:19 51°13.598 2°56.094 -999 -999 -999 -999 -999
2007-11-27 07:16:24 51°13.598 2°56.094 -999 -999 -999 -999 -999
2007-11-27 07:16:29 51°13.598 2°56.093 -999 -999 -999 -999 -999
2007-11-27 07:16:34 51°13.598 2°56.094 -999 -999 -999 -999 -999
2007-11-27 07:16:39 51°13.598 2°56.094 -999 -999 -999 -999 -999
2007-11-27 07:16:44 51°13.598 2°56.094 -999 -999 -999 -999 -999
2007-11-27 07:16:49 51°13.598 2°56.094 -999 -999 -999 -999 -999
2007-11-27 07:16:54 51°13.598 2°56.094 -999 -999 -999 -999 -999
2007-11-27 07:16:59 51°13.598 2°56.094 -999 -999 -999 -999 -999
2007-11-27 07:17:04 51°13.598 2°56.094 -999 -999 -999 -999 -999
2007-11-27 07:17:09 51°13.598 2°56.094 -999 -999 -999 -999 -999
2007-11-27 07:17:14 51°13.598 2°56.094 -999 -999 -999 -999 -999
2007-11-27 07:17:19 51°13.598 2°56.094 -999 -999 -999 -999 -999
2007-11-27 07:17:24 51°13.598 2°56.094 -999 -999 -999 -999 -999
2007-11-27 07:17:29 51°13.598 2°56.094 -999 -999 -999 -999 -999
2007-11-27 07:17:34 51°13.598 2°56.094 -999 -999 -999 -999 -999
2007-11-27 07:17:39 51°13.598 2°56.094 -999 -999 -999 -999 -999
2007-11-27 07:17:44 51°13.598 2°56.094 -999 -999 -999 -999 -999
2007-11-27 07:17:49 51°13.598 2°56.094 -999 -999 -999 -999 -999
2007-11-27 07:17:54 51°13.598 2°56.094 -999 -999 -999 -999 -999
2007-11-27 07:17:59 51°13.598 2°56.094 -999 -999 -999 -999 -999
2007-11-27 07:18:04 51°13.598 2°56.094 -999 -999 -999 -999 -999
2007-11-27 07:18:09 51°13.598 2°56.094 -999 -999 -999 -999 -999
2007-11-27 07:18:14 51°13.598 2°56.094 -999 -999 -999 -999 -999
2007-11-27 07:18:19 51°13.598 2°56.094 -999 -999 -999 -999 -999
2007-11-27 07:18:24 51°13.598 2°56.094 -999 -999 -999 -999 -999
2007-11-27 07:18:29 51°13.598 2°56.094 -999 -999 -999 -999 -999
2007-11-27 07:18:34 51°13.598 2°56.094 -999 -999 -999 -999 -999
2007-11-27 07:18:39 51°13.598 2°56.094 -999 -999 -999 -999 -999
2007-11-27 07:18:44 51°13.598 2°56.094 -999 -999 -999 -999 -999
2007-11-27 07:18:49 51°13.598 2°56.094 -999 -999 -999 -999 -999
2007-11-27 07:18:54 51°13.598 2°56.094 -999 -999 -999 -999 -999
2007-11-27 07:18:59 51°13.598 2°56.094 -999 -999 -999 -999 -999
2007-11-27 07:19:04 51°13.598 2°56.094 -999 -999 -999 -999 -999
2007-11-27 07:19:09 51°13.598 2°56.094 -999 -999 -999 -999 -999
2007-11-27 07:19:14 51°13.598 2°56.094 -999 -999 -999 -999 -999
2007-11-27 07:19:19 51°13.598 2°56.095 -999 -999 -999 -999 -999
2007-11-27 07:19:24 51°13.598 2°56.095 -999 -999 -999 -999 -999
2007-11-27 07:19:29 51°13.597 2°56.095 -999 -999 -999 -999 -999
2007-11-27 07:19:34 51°13.597 2°56.095 -999 -999 -999 -999 -999
2007-11-27 07:19:39 51°13.597 2°56.095 -999 -999 -999 -999 -999
2007-11-27 07:19:44 51°13.597 2°56.095 -999 -999 -999 -999 -999
2007-11-27 07:19:49 51°13.597 2°56.095 -999 -999 -999 -999 -999
2007-11-27 07:19:54 51°13.597 2°56.095 -999 -999 -999 -999 -999
2007-11-27 07:19:59 51°13.597 2°56.095 -999 -999 -999 -999 -999
2007-11-27 07:20:04 51°13.597 2°56.095 -999 -999 -999 -999 -999
2007-11-27 07:20:09 51°13.597 2°56.095 -999 -999 -999 -999 -999
2007-11-27 07:20:14 51°13.597 2°56.095 -999 -999 -999 -999 -999
2007-11-27 07:20:19 51°13.597 2°56.095 -999 -999 -999 -999 -999
2007-11-27 07:20:24 51°13.597 2°56.095 -999 -999 -999 -999 -999
2007-11-27 07:20:29 51°13.597 2°56.095 -999 -999 -999 -999 -999
2007-11-27 07:20:34 51°13.597 2°56.095 -999 -999 -999 -999 -999
2007-11-27 07:20:39 51°13.597 2°56.095 -999 -999 -999 -999 -999
2007-11-27 07:20:44 51°13.597 2°56.095 -999 -999 -999 -999 -999
2007-11-27 07:20:49 51°13.597 2°56.095 -999 -999 -999 -999 -999
2007-11-27 07:20:54 51°13.597 2°56.095 -999 -999 -999 -999 -999
2007-11-27 07:20:59 51°13.597 2°56.095 -999 -999 -999 -999 -999
2007-11-27 07:21:04 51°13.597 2°56.095 -999 -999 -999 -999 -999
2007-11-27 07:21:09 51°13.597 2°56.095 -999 -999 -999 -999 -999
2007-11-27 07:21:14 51°13.598 2°56.095 -999 -999 -999 -999 -999
2007-11-27 07:21:19 51°13.598 2°56.095 -999 -999 -999 -999 -999
2007-11-27 07:21:24 51°13.598 2°56.095 -999 -999 -999 -999 -999
2007-11-27 07:21:29 51°13.598 2°56.095 -999 -999 -999 -999 -999
2007-11-27 07:21:34 51°13.598 2°56.095 -999 -999 -999 -999 -999
2007-11-27 07:21:39 51°13.598 2°56.095 -999 -999 -999 -999 -999
2007-11-27 07:21:44 51°13.598 2°56.095 -999 -999 -999 -999 -999
2007-11-27 07:21:49 51°13.598 2°56.095 -999 -999 -999 -999 -999
2007-11-27 07:21:54 51°13.598 2°56.095 -999 -999 -999 -999 -999
2007-11-27 07:21:59 51°13.598 2°56.095 -999 -999 -999 -999 -999
2007-11-27 07:22:04 51°13.598 2°56.095 -999 -999 -999 -999 -999
2007-11-27 07:22:09 51°13.598 2°56.095 -999 -999 -999 -999 -999
2007-11-27 07:22:14 51°13.598 2°56.095 -999 -999 -999 -999 -999
2007-11-27 07:22:19 51°13.598 2°56.095 -999 -999 -999 -999 -999
2007-11-27 07:22:24 51°13.598 2°56.095 -999 -999 -999 -999 -999
2007-11-27 07:22:29 51°13.598 2°56.095 -999 -999 -999 -999 -999
2007-11-27 07:22:34 51°13.598 2°56.095 -999 -999 -999 -999 -999
2007-11-27 07:22:39 51°13.598 2°56.095 -999 -999 -999 -999 -999
2007-11-27 07:22:44 51°13.598 2°56.095 -999 -999 -999 -999 -999
2007-11-27 07:22:49 51°13.598 2°56.095 -999 -999 -999 -999 -999
2007-11-27 07:22:54 51°13.598 2°56.095 -999 -999 -999 -999 -999
2007-11-27 07:22:59 51°13.598 2°56.095 -999 -999 -999 -999 -999
2007-11-27 07:23:04 51°13.598 2°56.095 -999 -999 -999 -999 -999
2007-11-27 07:23:09 51°13.598 2°56.094 -999 -999 -999 -999 -999
2007-11-27 07:23:14 51°13.598 2°56.094 -999 -999 -999 -999 -999
2007-11-27 07:23:19 51°13.597 2°56.094 -999 -999 -999 -999 -999
2007-11-27 07:23:24 51°13.597 2°56.094 -999 -999 -999 -999 -999
2007-11-27 07:23:29 51°13.598 2°56.095 -999 -999 -999 -999 -999
2007-11-27 07:23:34 51°13.598 2°56.095 -999 -999 -999 -999 -999
2007-11-27 07:23:39 51°13.598 2°56.095 -999 -999 -999 -999 -999
2007-11-27 07:23:44 51°13.598 2°56.095 -999 -999 -999 -999 -999
2007-11-27 07:23:49 51°13.598 2°56.095 -999 -999 -999 -999 -999
2007-11-27 07:23:54 51°13.598 2°56.095 -999 -999 -999 -999 -999
2007-11-27 07:23:59 51°13.598 2°56.095 -999 -999 -999 -999 -999
2007-11-27 07:24:04 51°13.598 2°56.095 -999 -999 -999 -999 -999
2007-11-27 07:24:09 51°13.599 2°56.095 -999 -999 -999 -999 -999
2007-11-27 07:24:14 51°13.599 2°56.096 -999 -999 -999 -999 -999
2007-11-27 07:24:19 51°13.599 2°56.096 -999 -999 -999 -999 -999
2007-11-27 07:24:24 51°13.599 2°56.096 -999 -999 -999 -999 -999
2007-11-27 07:24:29 51°13.599 2°56.096 -999 -999 -999 -999 -999
2007-11-27 07:24:34 51°13.599 2°56.096 -999 -999 -999 -999 -999
2007-11-27 07:24:39 51°13.599 2°56.096 -999 -999 -999 -999 -999
2007-11-27 07:24:44 51°13.599 2°56.096 -999 -999 -999 -999 -999
2007-11-27 07:24:49 51°13.599 2°56.096 -999 -999 -999 -999 -999
2007-11-27 07:24:54 51°13.599 2°56.096 -999 -999 -999 -999 -999
2007-11-27 07:24:59 51°13.599 2°56.096 -999 -999 -999 -999 -999
2007-11-27 07:25:04 51°13.599 2°56.096 -999 -999 -999 -999 -999
2007-11-27 07:25:09 51°13.599 2°56.097 -999 -999 -999 -999 -999
2007-11-27 07:25:14 51°13.599 2°56.097 -999 -999 -999 -999 -999
2007-11-27 07:25:19 51°13.599 2°56.097 -999 -999 -999 -999 -999
2007-11-27 07:25:24 51°13.599 2°56.097 -999 -999 -999 -999 -999
2007-11-27 07:25:29 51°13.6 2°56.097 -999 -999 -999 -999 -999
2007-11-27 07:25:34 51°13.6 2°56.097 -999 -999 -999 -999 -999
2007-11-27 07:25:39 51°13.6 2°56.097 -999 -999 -999 -999 -999
2007-11-27 07:25:44 51°13.599 2°56.097 -999 -999 -999 -999 -999
2007-11-27 07:25:49 51°13.6 2°56.097 -999 -999 -999 -999 -999
2007-11-27 07:25:54 51°13.6 2°56.097 -999 -999 -999 -999 -999
2007-11-27 07:25:59 51°13.6 2°56.097 -999 -999 -999 -999 -999
2007-11-27 07:26:04 51°13.6 2°56.097 -999 -999 -999 -999 -999
2007-11-27 07:26:09 51°13.6 2°56.097 -999 -999 -999 -999 -999
2007-11-27 07:26:14 51°13.6 2°56.097 -999 -999 -999 -999 -999
2007-11-27 07:26:19 51°13.6 2°56.097 -999 -999 -999 -999 -999
2007-11-27 07:26:24 51°13.6 2°56.097 -999 -999 -999 -999 -999
2007-11-27 07:26:29 51°13.6 2°56.097 -999 -999 -999 -999 -999
2007-11-27 07:26:34 51°13.6 2°56.097 -999 -999 -999 -999 -999
2007-11-27 07:26:39 51°13.6 2°56.097 -999 -999 -999 -999 -999
2007-11-27 07:26:44 51°13.6 2°56.097 -999 -999 -999 -999 -999
2007-11-27 07:26:49 51°13.6 2°56.096 -999 -999 -999 -999 -999
2007-11-27 07:26:54 51°13.6 2°56.096 -999 -999 -999 -999 -999
2007-11-27 07:26:59 51°13.6 2°56.096 -999 -999 -999 -999 -999
2007-11-27 07:27:04 51°13.6 2°56.096 -999 -999 -999 -999 -999
2007-11-27 07:27:09 51°13.6 2°56.096 -999 -999 -999 -999 -999
2007-11-27 07:27:14 51°13.6 2°56.096 -999 -999 -999 -999 -999
2007-11-27 07:27:19 51°13.6 2°56.096 -999 -999 -999 -999 -999
2007-11-27 07:27:24 51°13.6 2°56.096 -999 -999 -999 -999 -999
2007-11-27 07:27:29 51°13.6 2°56.096 -999 -999 -999 -999 -999
2007-11-27 07:27:34 51°13.6 2°56.096 -999 -999 -999 -999 -999
2007-11-27 07:27:39 51°13.6 2°56.096 -999 -999 -999 -999 -999
2007-11-27 07:27:44 51°13.6 2°56.095 -999 -999 -999 -999 -999
2007-11-27 07:27:49 51°13.6 2°56.095 -999 -999 -999 -999 -999
2007-11-27 07:27:54 51°13.6 2°56.095 -999 -999 -999 -999 -999
2007-11-27 07:27:59 51°13.6 2°56.095 -999 -999 -999 -999 -999
2007-11-27 07:28:04 51°13.6 2°56.095 -999 -999 -999 -999 -999
2007-11-27 07:28:09 51°13.6 2°56.095 -999 -999 -999 -999 -999
2007-11-27 07:28:14 51°13.6 2°56.095 -999 -999 -999 -999 -999
2007-11-27 07:28:19 51°13.6 2°56.095 -999 -999 -999 -999 -999
2007-11-27 07:28:24 51°13.601 2°56.095 -999 -999 -999 -999 -999
2007-11-27 07:28:29 51°13.601 2°56.095 -999 -999 -999 -999 -999
2007-11-27 07:28:34 51°13.601 2°56.095 -999 -999 -999 -999 -999
2007-11-27 07:28:39 51°13.601 2°56.095 -999 -999 -999 -999 -999
2007-11-27 07:28:44 51°13.601 2°56.095 -999 -999 -999 -999 -999
2007-11-27 07:28:49 51°13.601 2°56.095 -999 -999 -999 -999 -999
2007-11-27 07:28:54 51°13.6 2°56.095 -999 -999 -999 -999 -999
2007-11-27 07:28:59 51°13.6 2°56.095 -999 -999 -999 -999 -999
2007-11-27 07:29:04 51°13.6 2°56.095 -999 -999 -999 -999 -999
2007-11-27 07:29:09 51°13.6 2°56.094 -999 -999 -999 -999 -999
2007-11-27 07:29:14 51°13.6 2°56.094 -999 -999 -999 -999 -999
2007-11-27 07:29:19 51°13.6 2°56.094 -999 -999 -999 -999 -999
2007-11-27 07:29:24 51°13.6 2°56.094 -999 -999 -999 -999 -999
2007-11-27 07:29:29 51°13.6 2°56.094 -999 -999 -999 -999 -999
2007-11-27 07:29:34 51°13.6 2°56.094 -999 -999 -999 -999 -999
2007-11-27 07:29:39 51°13.6 2°56.094 -999 -999 -999 -999 -999
2007-11-27 07:29:44 51°13.6 2°56.094 -999 -999 -999 -999 -999
2007-11-27 07:29:49 51°13.6 2°56.094 -999 -999 -999 -999 -999
2007-11-27 07:29:54 51°13.599 2°56.094 -999 -999 -999 -999 -999
2007-11-27 07:29:59 51°13.599 2°56.094 -999 -999 -999 -999 -999
2007-11-27 07:30:04 51°13.599 2°56.094 -999 -999 -999 -999 -999
2007-11-27 07:30:09 51°13.599 2°56.094 -999 -999 -999 -999 -999
2007-11-27 07:30:14 51°13.599 2°56.094 -999 -999 -999 -999 -999
2007-11-27 07:30:19 51°13.599 2°56.094 -999 -999 -999 -999 -999
2007-11-27 07:30:24 51°13.599 2°56.094 -999 -999 -999 -999 -999
2007-11-27 07:30:29 51°13.599 2°56.094 -999 -999 -999 -999 -999
2007-11-27 07:30:34 51°13.599 2°56.094 -999 -999 -999 -999 -999
2007-11-27 07:30:39 51°13.599 2°56.094 -999 -999 -999 -999 -999
2007-11-27 07:30:44 51°13.599 2°56.094 -999 -999 -999 -999 -999
2007-11-27 07:30:49 51°13.599 2°56.094 -999 -999 -999 -999 -999
2007-11-27 07:30:54 51°13.599 2°56.094 -999 -999 -999 -999 -999
2007-11-27 07:30:59 51°13.599 2°56.094 -999 -999 -999 -999 -999
2007-11-27 07:31:04 51°13.599 2°56.094 -999 -999 -999 -999 -999
2007-11-27 07:31:09 51°13.599 2°56.094 -999 -999 -999 -999 -999
2007-11-27 07:31:14 51°13.599 2°56.094 -999 -999 -999 -999 -999
2007-11-27 07:31:19 51°13.599 2°56.094 -999 -999 -999 -999 -999
2007-11-27 07:31:24 51°13.599 2°56.094 -999 -999 -999 -999 -999
2007-11-27 07:31:29 51°13.599 2°56.094 -999 -999 -999 -999 -999
2007-11-27 07:31:34 51°13.599 2°56.094 -999 -999 -999 -999 -999
2007-11-27 07:31:39 51°13.599 2°56.094 -999 -999 -999 -999 -999
2007-11-27 07:31:44 51°13.599 2°56.094 -999 -999 -999 -999 -999
2007-11-27 07:31:49 51°13.599 2°56.094 -999 -999 -999 -999 -999
2007-11-27 07:31:54 51°13.599 2°56.094 -999 -999 -999 -999 -999
2007-11-27 07:31:59 51°13.599 2°56.094 -999 -999 -999 -999 -999
2007-11-27 07:32:04 51°13.599 2°56.094 -999 -999 -999 -999 -999
2007-11-27 07:32:09 51°13.599 2°56.094 -999 -999 -999 -999 -999
2007-11-27 07:32:14 51°13.599 2°56.095 -999 -999 -999 -999 -999
2007-11-27 07:32:19 51°13.599 2°56.095 -999 -999 -999 -999 -999
2007-11-27 07:32:24 51°13.599 2°56.095 -999 -999 -999 -999 -999
2007-11-27 07:32:29 51°13.599 2°56.095 -999 -999 -999 -999 -999
2007-11-27 07:32:34 51°13.599 2°56.095 -999 -999 -999 -999 -999
2007-11-27 07:32:39 51°13.599 2°56.095 -999 -999 -999 -999 -999
2007-11-27 07:32:44 51°13.599 2°56.095 -999 -999 -999 -999 -999
2007-11-27 07:32:49 51°13.599 2°56.095 -999 -999 -999 -999 -999
2007-11-27 07:32:54 51°13.599 2°56.095 -999 -999 -999 -999 -999
2007-11-27 07:32:59 51°13.599 2°56.095 -999 -999 -999 -999 -999
2007-11-27 07:33:04 51°13.599 2°56.095 -999 -999 -999 -999 -999
2007-11-27 07:33:09 51°13.599 2°56.095 -999 -999 -999 -999 -999
2007-11-27 07:33:14 51°13.599 2°56.095 -999 -999 -999 -999 -999
2007-11-27 07:33:19 51°13.599 2°56.095 -999 -999 -999 -999 -999
2007-11-27 07:33:24 51°13.6 2°56.095 -999 -999 -999 -999 -999
2007-11-27 07:33:29 51°13.6 2°56.095 -999 -999 -999 -999 -999
2007-11-27 07:33:34 51°13.6 2°56.096 -999 -999 -999 -999 -999
2007-11-27 07:33:39 51°13.6 2°56.096 -999 -999 -999 -999 -999
2007-11-27 07:33:44 51°13.601 2°56.096 -999 -999 -999 -999 -999
2007-11-27 07:33:49 51°13.601 2°56.096 -999 -999 -999 -999 -999
2007-11-27 07:33:54 51°13.601 2°56.096 -999 -999 -999 -999 -999
2007-11-27 07:33:59 51°13.601 2°56.096 -999 -999 -999 -999 -999
2007-11-27 07:34:04 51°13.601 2°56.096 -999 -999 -999 -999 -999
2007-11-27 07:34:09 51°13.601 2°56.095 -999 -999 -999 -999 -999
2007-11-27 07:34:14 51°13.601 2°56.095 -999 -999 -999 -999 -999
2007-11-27 07:34:19 51°13.601 2°56.096 -999 -999 -999 -999 -999
2007-11-27 07:34:24 51°13.601 2°56.096 -999 -999 -999 -999 -999
2007-11-27 07:34:29 51°13.601 2°56.095 -999 -999 -999 -999 -999
2007-11-27 07:34:34 51°13.601 2°56.095 -999 -999 -999 -999 -999
2007-11-27 07:34:39 51°13.601 2°56.095 -999 -999 -999 -999 -999
2007-11-27 07:34:44 51°13.6 2°56.095 -999 -999 -999 -999 -999
2007-11-27 07:34:49 51°13.6 2°56.095 -999 -999 -999 -999 -999
2007-11-27 07:34:54 51°13.6 2°56.095 -999 -999 -999 -999 -999
2007-11-27 07:34:59 51°13.6 2°56.095 -999 -999 -999 -999 -999
2007-11-27 07:35:04 51°13.6 2°56.095 -999 -999 -999 -999 -999
2007-11-27 07:35:09 51°13.599 2°56.095 -999 -999 -999 -999 -999
2007-11-27 07:35:14 51°13.599 2°56.095 -999 -999 -999 -999 -999
2007-11-27 07:35:19 51°13.599 2°56.095 -999 -999 -999 -999 -999
2007-11-27 07:35:24 51°13.599 2°56.095 -999 -999 -999 -999 -999
2007-11-27 07:35:29 51°13.599 2°56.095 -999 -999 -999 -999 -999
2007-11-27 07:35:34 51°13.599 2°56.094 -999 -999 -999 -999 -999
2007-11-27 07:35:39 51°13.599 2°56.094 -999 -999 -999 -999 -999
2007-11-27 07:35:44 51°13.599 2°56.095 -999 -999 -999 -999 -999
2007-11-27 07:35:49 51°13.599 2°56.094 -999 -999 -999 -999 -999
2007-11-27 07:35:54 51°13.599 2°56.094 -999 -999 -999 -999 -999
2007-11-27 07:35:59 51°13.599 2°56.094 -999 -999 -999 -999 -999
2007-11-27 07:36:04 51°13.599 2°56.094 -999 -999 -999 -999 -999
2007-11-27 07:36:09 51°13.599 2°56.094 -999 -999 -999 -999 -999
2007-11-27 07:36:14 51°13.599 2°56.094 -999 -999 -999 -999 -999
2007-11-27 07:36:19 51°13.599 2°56.094 -999 -999 -999 -999 -999
2007-11-27 07:36:24 51°13.599 2°56.094 -999 -999 -999 -999 -999
2007-11-27 07:36:29 51°13.599 2°56.094 -999 -999 -999 -999 -999
2007-11-27 07:36:34 51°13.599 2°56.094 -999 -999 -999 -999 -999
2007-11-27 07:36:39 51°13.599 2°56.094 -999 -999 -999 -999 -999
2007-11-27 07:36:44 51°13.599 2°56.094 -999 -999 -999 -999 -999
2007-11-27 07:36:49 51°13.599 2°56.094 -999 -999 -999 -999 -999
2007-11-27 07:36:54 51°13.599 2°56.094 -999 -999 -999 -999 -999
2007-11-27 07:36:59 51°13.599 2°56.094 -999 -999 -999 -999 -999
2007-11-27 07:37:04 51°13.599 2°56.094 -999 -999 -999 -999 -999
2007-11-27 07:37:09 51°13.599 2°56.094 -999 -999 -999 -999 -999
2007-11-27 07:37:14 51°13.599 2°56.094 -999 -999 -999 -999 -999
2007-11-27 07:37:19 51°13.599 2°56.094 -999 -999 -999 -999 -999
2007-11-27 07:37:24 51°13.599 2°56.094 -999 -999 -999 -999 -999
2007-11-27 07:37:29 51°13.599 2°56.094 -999 -999 -999 -999 -999
2007-11-27 07:37:34 51°13.599 2°56.094 -999 -999 -999 -999 -999
2007-11-27 07:37:39 51°13.599 2°56.094 -999 -999 -999 -999 -999
2007-11-27 07:37:44 51°13.599 2°56.094 -999 -999 -999 -999 -999
2007-11-27 07:37:49 51°13.599 2°56.094 -999 -999 -999 -999 -999
2007-11-27 07:37:54 51°13.599 2°56.094 -999 -999 -999 -999 -999
2007-11-27 07:37:59 51°13.599 2°56.095 -999 -999 -999 -999 -999
2007-11-27 07:38:04 51°13.599 2°56.094 -999 -999 -999 -999 -999
2007-11-27 07:38:09 51°13.599 2°56.094 -999 -999 -999 -999 -999
2007-11-27 07:38:14 51°13.599 2°56.094 -999 -999 -999 -999 -999
2007-11-27 07:38:19 51°13.599 2°56.094 -999 -999 -999 -999 -999
2007-11-27 07:38:24 51°13.599 2°56.094 -999 -999 -999 -999 -999
2007-11-27 07:38:29 51°13.599 2°56.094 -999 -999 -999 -999 -999
2007-11-27 07:38:34 51°13.599 2°56.094 -999 -999 -999 -999 -999
2007-11-27 07:38:39 51°13.599 2°56.094 -999 -999 -999 -999 -999
2007-11-27 07:38:44 51°13.599 2°56.094 -999 -999 -999 -999 -999
2007-11-27 07:38:49 51°13.599 2°56.094 -999 -999 -999 -999 -999
2007-11-27 07:38:54 51°13.599 2°56.094 -999 -999 -999 -999 -999
2007-11-27 07:38:59 51°13.599 2°56.094 -999 -999 -999 -999 -999
2007-11-27 07:39:04 51°13.599 2°56.094 -999 -999 -999 -999 -999
2007-11-27 07:39:09 51°13.599 2°56.094 -999 -999 -999 -999 -999
2007-11-27 07:39:14 51°13.599 2°56.094 -999 -999 -999 -999 -999
2007-11-27 07:39:19 51°13.599 2°56.094 -999 -999 -999 -999 -999
2007-11-27 07:39:24 51°13.599 2°56.094 -999 -999 -999 -999 -999
2007-11-27 07:39:29 51°13.599 2°56.094 -999 -999 -999 -999 -999
2007-11-27 07:39:34 51°13.599 2°56.094 -999 -999 -999 -999 -999
2007-11-27 07:39:39 51°13.599 2°56.094 -999 -999 -999 -999 -999
2007-11-27 07:39:44 51°13.599 2°56.094 -999 -999 -999 -999 -999
2007-11-27 07:39:49 51°13.599 2°56.094 -999 -999 -999 -999 -999
2007-11-27 07:39:54 51°13.599 2°56.094 -999 -999 -999 -999 -999
2007-11-27 07:39:59 51°13.599 2°56.094 -999 -999 -999 -999 -999
2007-11-27 07:40:04 51°13.599 2°56.094 -999 -999 -999 -999 -999
2007-11-27 07:40:09 51°13.599 2°56.094 -999 -999 -999 -999 -999
2007-11-27 07:40:14 51°13.599 2°56.094 -999 -999 -999 -999 -999
2007-11-27 07:40:19 51°13.599 2°56.094 -999 -999 -999 -999 -999
2007-11-27 07:40:24 51°13.599 2°56.094 -999 -999 -999 -999 -999
2007-11-27 07:40:29 51°13.599 2°56.094 -999 -999 -999 -999 -999
2007-11-27 07:40:34 51°13.599 2°56.094 -999 -999 -999 -999 -999
2007-11-27 07:40:39 51°13.599 2°56.094 -999 -999 -999 -999 -999
2007-11-27 07:40:44 51°13.599 2°56.094 -999 -999 -999 -999 -999
2007-11-27 07:40:49 51°13.599 2°56.095 -999 -999 -999 -999 -999
2007-11-27 07:40:54 51°13.599 2°56.095 -999 -999 -999 -999 -999
2007-11-27 07:40:59 51°13.599 2°56.095 -999 -999 -999 -999 -999
2007-11-27 07:41:04 51°13.599 2°56.095 -999 -999 -999 -999 -999
2007-11-27 07:41:09 51°13.599 2°56.095 -999 -999 -999 -999 -999
2007-11-27 07:41:14 51°13.599 2°56.095 -999 -999 -999 -999 -999
2007-11-27 07:41:19 51°13.599 2°56.094 -999 -999 -999 -999 -999
2007-11-27 07:41:24 51°13.599 2°56.094 -999 -999 -999 -999 -999
2007-11-27 07:41:29 51°13.599 2°56.094 -999 -999 -999 -999 -999
2007-11-27 07:41:34 51°13.599 2°56.094 -999 -999 -999 -999 -999
2007-11-27 07:41:39 51°13.598 2°56.094 -999 -999 -999 -999 -999
2007-11-27 07:41:44 51°13.599 2°56.094 -999 -999 -999 -999 -999
2007-11-27 07:41:49 51°13.599 2°56.094 -999 -999 -999 -999 -999
2007-11-27 07:41:54 51°13.599 2°56.094 -999 -999 -999 -999 -999
2007-11-27 07:41:59 51°13.599 2°56.094 -999 -999 -999 -999 -999
2007-11-27 07:42:04 51°13.599 2°56.094 -999 -999 -999 -999 -999
2007-11-27 07:42:09 51°13.599 2°56.094 -999 -999 -999 -999 -999
2007-11-27 07:42:14 51°13.599 2°56.094 -999 -999 -999 -999 -999
2007-11-27 07:42:19 51°13.599 2°56.094 -999 -999 -999 -999 -999
2007-11-27 07:42:24 51°13.599 2°56.094 -999 -999 -999 -999 -999
2007-11-27 07:42:29 51°13.599 2°56.094 -999 -999 -999 -999 -999
2007-11-27 07:42:34 51°13.599 2°56.094 -999 -999 -999 -999 -999
2007-11-27 07:42:39 51°13.599 2°56.094 -999 -999 -999 -999 -999
2007-11-27 07:42:44 51°13.599 2°56.094 -999 -999 -999 -999 -999
2007-11-27 07:42:49 51°13.599 2°56.094 -999 -999 -999 -999 -999
2007-11-27 07:42:54 51°13.599 2°56.094 -999 -999 -999 -999 -999
2007-11-27 07:42:59 51°13.599 2°56.094 -999 -999 -999 -999 -999
2007-11-27 07:43:04 51°13.599 2°56.094 -999 -999 -999 -999 -999
2007-11-27 07:43:09 51°13.599 2°56.094 -999 -999 -999 -999 -999
2007-11-27 07:43:14 51°13.599 2°56.094 -999 -999 -999 -999 -999
2007-11-27 07:43:19 51°13.599 2°56.094 -999 -999 -999 -999 -999
2007-11-27 07:43:24 51°13.599 2°56.094 -999 -999 -999 -999 -999
2007-11-27 07:43:29 51°13.599 2°56.094 -999 -999 -999 -999 -999
2007-11-27 07:43:34 51°13.599 2°56.094 -999 -999 -999 -999 -999
2007-11-27 07:43:39 51°13.599 2°56.094 -999 -999 -999 -999 -999
2007-11-27 07:43:44 51°13.599 2°56.094 -999 -999 -999 -999 -999
2007-11-27 07:43:49 51°13.599 2°56.094 -999 -999 -999 -999 -999
2007-11-27 07:43:54 51°13.599 2°56.094 -999 -999 -999 -999 -999
2007-11-27 07:43:59 51°13.599 2°56.094 -999 -999 -999 -999 -999
2007-11-27 07:44:04 51°13.599 2°56.094 -999 -999 -999 -999 -999
2007-11-27 07:44:09 51°13.599 2°56.094 -999 -999 -999 -999 -999
2007-11-27 07:44:14 51°13.599 2°56.094 -999 -999 -999 -999 -999
2007-11-27 07:44:19 51°13.599 2°56.094 -999 -999 -999 -999 -999
2007-11-27 07:44:24 51°13.599 2°56.094 -999 -999 -999 -999 -999
2007-11-27 07:44:29 51°13.599 2°56.094 -999 -999 -999 -999 -999
2007-11-27 07:44:34 51°13.599 2°56.094 -999 -999 -999 -999 -999
2007-11-27 07:44:39 51°13.599 2°56.094 -999 -999 -999 -999 -999
2007-11-27 07:44:44 51°13.599 2°56.094 -999 -999 -999 -999 -999
2007-11-27 07:44:49 51°13.599 2°56.094 -999 -999 -999 -999 -999
2007-11-27 07:44:54 51°13.599 2°56.094 -999 -999 -999 -999 -999
2007-11-27 07:44:59 51°13.599 2°56.094 -999 -999 -999 -999 -999
2007-11-27 07:45:04 51°13.599 2°56.094 -999 -999 -999 -999 -999
2007-11-27 07:45:09 51°13.598 2°56.094 -999 -999 -999 -999 -999
2007-11-27 07:45:14 51°13.599 2°56.094 -999 -999 -999 -999 -999
2007-11-27 07:45:19 51°13.599 2°56.095 -999 -999 -999 -999 -999
2007-11-27 07:45:24 51°13.599 2°56.095 -999 -999 -999 -999 -999
2007-11-27 07:45:29 51°13.598 2°56.095 -999 -999 -999 -999 -999
2007-11-27 07:45:34 51°13.598 2°56.095 -999 -999 -999 -999 -999
2007-11-27 07:45:39 51°13.598 2°56.095 -999 -999 -999 -999 -999
2007-11-27 07:45:44 51°13.598 2°56.095 -999 -999 -999 -999 -999
2007-11-27 07:45:49 51°13.598 2°56.095 -999 -999 -999 -999 -999
2007-11-27 07:45:54 51°13.598 2°56.095 -999 -999 -999 -999 -999
2007-11-27 07:45:59 51°13.598 2°56.095 -999 -999 -999 -999 -999
2007-11-27 07:46:04 51°13.598 2°56.095 -999 -999 -999 -999 -999
2007-11-27 07:46:09 51°13.598 2°56.095 -999 -999 -999 -999 -999
2007-11-27 07:46:14 51°13.598 2°56.095 -999 -999 -999 -999 -999
2007-11-27 07:46:19 51°13.598 2°56.095 -999 -999 -999 -999 -999
2007-11-27 07:46:24 51°13.598 2°56.095 -999 -999 -999 -999 -999
2007-11-27 07:46:29 51°13.598 2°56.095 -999 -999 -999 -999 -999
2007-11-27 07:46:34 51°13.597 2°56.095 -999 -999 -999 -999 -999
2007-11-27 07:46:39 51°13.597 2°56.095 -999 -999 -999 -999 -999
2007-11-27 07:46:44 51°13.598 2°56.094 -999 -999 -999 -999 -999
2007-11-27 07:46:49 51°13.598 2°56.093 -999 -999 -999 -999 -999
2007-11-27 07:46:54 51°13.598 2°56.092 -999 -999 -999 -999 -999
2007-11-27 07:46:59 51°13.599 2°56.09 -999 -999 -999 -999 -999
2007-11-27 07:47:04 51°13.6 2°56.087 -999 -999 -999 -999 -999
2007-11-27 07:47:09 51°13.601 2°56.083 -999 -999 -999 -999 -999
2007-11-27 07:47:14 51°13.602 2°56.079 -999 -999 -999 -999 -999
2007-11-27 07:47:19 51°13.603 2°56.073 -999 -999 -999 -999 -999
2007-11-27 07:47:24 51°13.604 2°56.067 -999 -999 -999 -999 -999
2007-11-27 07:47:29 51°13.606 2°56.061 -999 -999 -999 -999 -999
2007-11-27 07:47:34 51°13.608 2°56.053 -999 -999 -999 -999 -999
2007-11-27 07:47:39 51°13.609 2°56.046 -999 -999 -999 -999 -999
2007-11-27 07:47:44 51°13.611 2°56.037 -999 -999 -999 -999 -999
2007-11-27 07:47:49 51°13.613 2°56.029 -999 -999 -999 -999 -999
2007-11-27 07:47:54 51°13.616 2°56.02 -999 -999 -999 -999 -999
2007-11-27 07:47:59 51°13.618 2°56.011 -999 -999 -999 -999 -999
2007-11-27 07:48:04 51°13.621 2°56.002 -999 -999 -999 -999 -999
2007-11-27 07:48:09 51°13.624 2°55.992 -999 -999 -999 -999 -999
2007-11-27 07:48:14 51°13.627 2°55.983 -999 -999 -999 -999 -999
2007-11-27 07:48:19 51°13.63 2°55.973 -999 -999 -999 -999 -999
2007-11-27 07:48:24 51°13.633 2°55.964 -999 -999 -999 -999 -999
2007-11-27 07:48:29 51°13.636 2°55.954 -999 -999 -999 -999 -999
2007-11-27 07:48:34 51°13.64 2°55.944 -999 -999 -999 -999 -999
2007-11-27 07:48:39 51°13.643 2°55.934 -999 -999 -999 -999 -999
2007-11-27 07:48:44 51°13.647 2°55.923 -999 -999 -999 -999 -999
2007-11-27 07:48:49 51°13.65 2°55.913 -999 -999 -999 -999 -999
2007-11-27 07:48:54 51°13.654 2°55.903 -999 -999 -999 -999 -999
2007-11-27 07:48:59 51°13.657 2°55.892 -999 -999 -999 -999 -999
2007-11-27 07:49:04 51°13.66 2°55.882 -999 -999 -999 -999 -999
2007-11-27 07:49:09 51°13.664 2°55.872 -999 -999 -999 -999 -999
2007-11-27 07:49:14 51°13.667 2°55.861 -999 -999 -999 -999 -999
2007-11-27 07:49:19 51°13.67 2°55.851 -999 -999 -999 -999 -999
2007-11-27 07:49:24 51°13.672 2°55.841 -999 -999 -999 -999 -999
2007-11-27 07:49:29 51°13.675 2°55.831 -999 -999 -999 -999 -999
2007-11-27 07:49:34 51°13.677 2°55.821 -999 -999 -999 -999 -999
2007-11-27 07:49:39 51°13.679 2°55.812 -999 -999 -999 -999 -999
2007-11-27 07:49:44 51°13.681 2°55.803 -999 -999 -999 -999 -999
2007-11-27 07:49:49 51°13.683 2°55.794 -999 -999 -999 -999 -999
2007-11-27 07:49:54 51°13.685 2°55.786 -999 -999 -999 -999 -999
2007-11-27 07:49:59 51°13.686 2°55.778 -999 -999 -999 -999 -999
2007-11-27 07:50:04 51°13.688 2°55.77 -999 -999 -999 -999 -999
2007-11-27 07:50:09 51°13.689 2°55.763 -999 -999 -999 -999 -999
2007-11-27 07:50:14 51°13.691 2°55.757 -999 -999 -999 -999 -999
2007-11-27 07:50:19 51°13.692 2°55.751 -999 -999 -999 -999 -999
2007-11-27 07:50:24 51°13.693 2°55.748 -999 -999 -999 -999 -999
2007-11-27 07:50:29 51°13.693 2°55.745 -999 -999 -999 -999 -999
2007-11-27 07:50:34 51°13.694 2°55.745 -999 -999 -999 -999 -999
2007-11-27 07:50:39 51°13.694 2°55.746 -999 -999 -999 -999 -999
2007-11-27 07:50:44 51°13.695 2°55.748 -999 -999 -999 -999 -999
2007-11-27 07:50:49 51°13.695 2°55.751 -999 -999 -999 -999 -999
2007-11-27 07:50:54 51°13.696 2°55.754 -999 -999 -999 -999 -999
2007-11-27 07:50:59 51°13.696 2°55.756 -999 -999 -999 -999 -999
2007-11-27 07:51:04 51°13.697 2°55.757 -999 -999 -999 -999 -999
2007-11-27 07:51:09 51°13.697 2°55.757 -999 -999 -999 -999 -999
2007-11-27 07:51:14 51°13.697 2°55.756 -999 -999 -999 -999 -999
2007-11-27 07:51:19 51°13.696 2°55.755 -999 -999 -999 -999 -999
2007-11-27 07:51:24 51°13.696 2°55.752 -999 -999 -999 -999 -999
2007-11-27 07:51:29 51°13.695 2°55.749 -999 -999 -999 -999 -999
2007-11-27 07:51:34 51°13.694 2°55.745 -999 -999 -999 -999 -999
2007-11-27 07:51:39 51°13.693 2°55.742 -999 -999 -999 -999 -999
2007-11-27 07:51:44 51°13.692 2°55.739 -999 -999 -999 -999 -999
2007-11-27 07:51:49 51°13.691 2°55.736 -999 269 -999 -999 -999
2007-11-27 07:51:54 51°13.69 2°55.733 2.2 268 -999 -999 -999
2007-11-27 07:51:59 51°13.689 2°55.731 1.6 281 -999 -999 -999
2007-11-27 07:52:04 51°13.688 2°55.728 1.4 264 -999 -999 -999
2007-11-27 07:52:09 51°13.688 2°55.727 1.8 264 8.3 -999 71
2007-11-27 07:52:14 51°13.687 2°55.725 2.7 258 8.3 -999 71
2007-11-27 07:52:19 51°13.687 2°55.725 2.8 255 8.2 -999 77
2007-11-27 07:52:24 51°13.688 2°55.725 2.2 246 8.2 -999 77
2007-11-27 07:52:29 51°13.689 2°55.725 2.9 281 8.2 102970 77
2007-11-27 07:52:33 51°13.69 2°55.726 2.6 31 8.2 102970 77
2007-11-27 07:52:38 51°13.692 2°55.727 2.7 26 8.2 102970 77
2007-11-27 07:52:43 51°13.695 2°55.728 3.4 38 8.2 102970 77
2007-11-27 07:52:48 51°13.698 2°55.728 3.1 280 8.2 102970 77
2007-11-27 07:52:54 51°13.703 2°55.728 3 236 8.2 102970 77
2007-11-27 07:52:59 51°13.707 2°55.728 2.6 25 8.2 102970 77
2007-11-27 07:53:04 51°13.711 2°55.726 3.5 326 8.2 102970 77
2007-11-27 07:53:09 51°13.716 2°55.723 4 280 8.2 102970 77
2007-11-27 07:53:14 51°13.722 2°55.719 4.3 324 8.2 102970 77
2007-11-27 07:53:19 51°13.729 2°55.714 4.9 327 8.2 102970 77
2007-11-27 07:53:24 51°13.737 2°55.709 6 328 8.2 102970 77
2007-11-27 07:53:28 51°13.743 2°55.704 5.9 328 8.2 102970 77
2007-11-27 07:53:33 51°13.751 2°55.698 6.1 328 8.2 102970 77
2007-11-27 07:53:38 51°13.76 2°55.692 4.8 282 8.3 102970 77
2007-11-27 07:53:43 51°13.77 2°55.685 6.7 333 8.3 102970 77
2007-11-27 07:53:48 51°13.779 2°55.678 5.3 327 8.2 102970 77
2007-11-27 07:53:53 51°13.789 2°55.671 6 331 8.2 102970 77
2007-11-27 07:53:58 51°13.799 2°55.663 7.2 280 8.3 102970 77
2007-11-27 07:54:03 51°13.809 2°55.655 6.2 330 8.3 102970 77
2007-11-27 07:54:08 51°13.82 2°55.648 6.9 279 8.3 102970 77
2007-11-27 07:54:13 51°13.831 2°55.64 7.7 324 8.3 102970 77
2007-11-27 07:54:17 51°13.839 2°55.633 7.5 284 8.3 102970 78
2007-11-27 07:54:23 51°13.853 2°55.624 6.4 324 8.3 102970 78
2007-11-27 07:54:27 51°13.862 2°55.617 5.9 285 8.3 102970 78
2007-11-27 07:54:32 51°13.873 2°55.609 5.8 325 8.3 102970 78
2007-11-27 07:54:37 51°13.884 2°55.6 6.5 282 8.3 102970 78
2007-11-27 07:54:42 51°13.896 2°55.592 6.5 325 8.2 102970 78
2007-11-27 07:54:47 51°13.907 2°55.583 6.9 278 8.2 102970 78
2007-11-27 07:54:52 51°13.918 2°55.575 6.5 325 8.3 102970 78
2007-11-27 07:54:57 51°13.93 2°55.566 5.9 282 8.3 102970 78
2007-11-27 07:55:02 51°13.941 2°55.557 6.2 327 8.3 102970 78
2007-11-27 07:55:07 51°13.953 2°55.548 6.4 279 8.3 102970 78
2007-11-27 07:55:12 51°13.965 2°55.54 6 328 8.3 102970 78
2007-11-27 07:55:17 51°13.976 2°55.532 6.3 283 8.3 102970 78
2007-11-27 07:55:21 51°13.987 2°55.526 6.1 324 8.3 102970 78
2007-11-27 07:55:27 51°14.001 2°55.516 6.5 282 8.3 102970 78
2007-11-27 07:55:32 51°14.012 2°55.507 6.7 328 8.3 102970 78
2007-11-27 07:55:36 51°14.022 2°55.5 7.4 285 8.3 102970 78
2007-11-27 07:55:41 51°14.033 2°55.491 6.6 326 8.3 102970 78
2007-11-27 07:55:46 51°14.044 2°55.483 6.3 284 8.3 102970 78
2007-11-27 07:55:51 51°14.056 2°55.475 7.1 328 8.3 102970 78
2007-11-27 07:55:56 51°14.068 2°55.466 8.2 282 8.3 102970 78
2007-11-27 07:56:01 51°14.08 2°55.458 8.3 325 8.3 102970 78
2007-11-27 07:56:06 51°14.091 2°55.449 7 280 8.3 102980 79
2007-11-27 07:56:11 51°14.103 2°55.441 8.3 325 8.3 102980 79
2007-11-27 07:56:16 51°14.115 2°55.432 8.2 281 8.3 102970 79
2007-11-27 07:56:21 51°14.126 2°55.422 8.3 326 8.3 102980 79
2007-11-27 07:56:25 51°14.135 2°55.414 8 280 8.3 102980 79
2007-11-27 07:56:30 51°14.146 2°55.404 7.1 327 8.3 102980 79
2007-11-27 07:56:36 51°14.159 2°55.392 7.7 278 8.3 102970 79
2007-11-27 07:56:41 51°14.169 2°55.38 7.3 327 8.3 102980 79
2007-11-27 07:56:45 51°14.178 2°55.371 7.6 285 8.3 102980 79
2007-11-27 07:56:50 51°14.189 2°55.358 8.5 329 8.3 102980 79
2007-11-27 07:56:55 51°14.199 2°55.346 7.9 284 8.3 102980 80
2007-11-27 07:57:00 51°14.21 2°55.333 8.6 327 8.3 102980 80
2007-11-27 07:57:05 51°14.221 2°55.319 7.7 280 8.2 102980 80
2007-11-27 07:57:10 51°14.231 2°55.305 9.1 329 8.2 102980 80
2007-11-27 07:57:15 51°14.241 2°55.29 9.2 278 8.2 102970 80
2007-11-27 07:57:20 51°14.252 2°55.276 9.9 328 8.2 102970 80
2007-11-27 07:57:25 51°14.262 2°55.261 9.6 279 8.2 102980 80
2007-11-27 07:57:30 51°14.273 2°55.245 9.4 329 8.2 102980 80
2007-11-27 07:57:35 51°14.283 2°55.229 8.4 285 8.2 102980 80
2007-11-27 07:57:40 51°14.293 2°55.212 9.4 330 8.2 102980 80
2007-11-27 07:57:45 51°14.303 2°55.194 9.5 284 8.2 102980 80
2007-11-27 07:57:50 51°14.313 2°55.176 9.2 331 8.2 102980 80
2007-11-27 07:57:55 51°14.322 2°55.157 10.3 283 8.2 102980 80
2007-11-27 07:58:00 51°14.331 2°55.137 9.9 331 8.2 102980 80
2007-11-27 07:58:05 51°14.34 2°55.117 10.3 281 8.2 102980 80
2007-11-27 07:58:10 51°14.349 2°55.096 10.9 333 8.2 102980 80
2007-11-27 07:58:15 51°14.357 2°55.074 8.8 282 8.2 102980 80
2007-11-27 07:58:20 51°14.365 2°55.052 9 332 8.2 102980 80
2007-11-27 07:58:25 51°14.372 2°55.029 10.5 278 8.2 102980 80
2007-11-27 07:58:30 51°14.38 2°55.006 8.7 332 8.2 102980 80
2007-11-27 07:58:35 51°14.387 2°54.983 8.4 279 8.2 102980 80
2007-11-27 07:58:40 51°14.394 2°54.959 10.1 333 8.2 102980 80
2007-11-27 07:58:45 51°14.401 2°54.934 10.5 281 8.2 102980 80
2007-11-27 07:58:50 51°14.408 2°54.909 10.8 332 8.2 102980 80
2007-11-27 07:58:55 51°14.414 2°54.884 10.4 283 8.2 102970 80
2007-11-27 07:59:00 51°14.42 2°54.857 10.7 336 8.2 102980 81
2007-11-27 07:59:05 51°14.424 2°54.83 9.3 283 8.2 102980 81
2007-11-27 07:59:10 51°14.428 2°54.803 10.5 336 8.2 102980 81
2007-11-27 07:59:15 51°14.431 2°54.775 9.3 280 8.2 102970 81
2007-11-27 07:59:20 51°14.434 2°54.747 9.2 337 8.2 102970 81
2007-11-27 07:59:25 51°14.436 2°54.72 10.1 284 8.2 102970 81
2007-11-27 07:59:30 51°14.437 2°54.692 9.4 337 8.2 102970 81
2007-11-27 07:59:35 51°14.436 2°54.663 10.2 284 8.2 102960 81
2007-11-27 07:59:40 51°14.435 2°54.635 9.4 339 8.2 102960 81
2007-11-27 07:59:45 51°14.434 2°54.607 10 283 8.2 102970 81
2007-11-27 07:59:50 51°14.431 2°54.579 10.2 340 8.2 102970 81
2007-11-27 07:59:55 51°14.428 2°54.551 8.9 282 8.2 102970 81
2007-11-27 08:00:00 51°14.424 2°54.524 10.3 341 8.2 102970 81
2007-11-27 08:00:05 51°14.419 2°54.497 9.7 281 8.2 102970 81
2007-11-27 08:00:10 51°14.414 2°54.469 10.5 343 8.2 102970 81
2007-11-27 08:00:15 51°14.409 2°54.442 9.7 279 8.2 102970 81
2007-11-27 08:00:20 51°14.403 2°54.415 8.5 341 8.2 102970 81
2007-11-27 08:00:25 51°14.396 2°54.389 8.7 281 8.2 102970 81
2007-11-27 08:00:30 51°14.39 2°54.362 9.1 341 8.2 102970 81
2007-11-27 08:00:35 51°14.383 2°54.337 9 285 8.2 102970 81
2007-11-27 08:00:40 51°14.376 2°54.31 9.5 341 8.2 102960 81
2007-11-27 08:00:45 51°14.369 2°54.285 8.5 281 8.2 102960 81
2007-11-27 08:00:50 51°14.362 2°54.258 8.3 344 8.2 102960 81
2007-11-27 08:00:55 51°14.353 2°54.233 9.4 280 8.2 102970 80
2007-11-27 08:01:00 51°14.346 2°54.207 8.4 339 8.2 102970 81
2007-11-27 08:01:05 51°14.338 2°54.182 9.5 283 8.2 102970 81
2007-11-27 08:01:10 51°14.33 2°54.156 9.2 343 8.2 102970 81
2007-11-27 08:01:15 51°14.323 2°54.13 9.7 280 8.2 102970 81
2007-11-27 08:01:20 51°14.314 2°54.104 10 343 8.2 102970 81
2007-11-27 08:01:25 51°14.309 2°54.077 9.7 280 8.2 102970 81
2007-11-27 08:01:30 51°14.301 2°54.051 9.5 340 8.2 102970 81
2007-11-27 08:01:35 51°14.296 2°54.023 9.2 283 8.2 102970 81
2007-11-27 08:01:40 51°14.289 2°53.997 8.6 343 8.2 102970 81
2007-11-27 08:01:45 51°14.283 2°53.97 8.5 279 8.2 102970 81
2007-11-27 08:01:50 51°14.273 2°53.946 9.4 345 8.2 102970 80
2007-11-27 08:01:55 51°14.263 2°53.921 8.5 285 8.2 102970 80
2007-11-27 08:02:00 51°14.254 2°53.896 8 343 8.2 102970 80
2007-11-27 08:02:05 51°14.243 2°53.873 9.3 283 8.2 102970 80
2007-11-27 08:02:10 51°14.234 2°53.849 8.3 343 8.2 102970 80
2007-11-27 08:02:15 51°14.223 2°53.825 8.6 280 8.2 102970 80
2007-11-27 08:02:20 51°14.213 2°53.8 8.8 343 8.2 102970 80
2007-11-27 08:02:25 51°14.202 2°53.776 9.1 281 8.2 102970 80
2007-11-27 08:02:30 51°14.193 2°53.751 9.1 344 8.2 102970 80
2007-11-27 08:02:35 51°14.184 2°53.725 8.9 283 8.2 102970 80
2007-11-27 08:02:40 51°14.176 2°53.699 8.8 341 8.2 102970 80
2007-11-27 08:02:45 51°14.166 2°53.674 9.6 285 8.2 102970 80
2007-11-27 08:02:50 51°14.159 2°53.647 8.7 340 8.2 102970 81
2007-11-27 08:02:55 51°14.149 2°53.621 9.7 285 8.2 102970 81
2007-11-27 08:03:00 51°14.143 2°53.594 9.4 339 8.2 102970 81
2007-11-27 08:03:05 51°14.134 2°53.567 10 284 8.2 102970 81
2007-11-27 08:03:10 51°14.128 2°53.54 9.7 342 8.2 102970 81
2007-11-27 08:03:15 51°14.12 2°53.513 9.1 286 8.2 102970 81
2007-11-27 08:03:20 51°14.111 2°53.487 9 343 8.2 102970 81
2007-11-27 08:03:25 51°14.101 2°53.462 9 281 8.2 102970 81
2007-11-27 08:03:30 51°14.091 2°53.436 8.3 342 8.2 102970 81
2007-11-27 08:03:35 51°14.082 2°53.411 8.2 280 8.2 102970 81
2007-11-27 08:03:40 51°14.071 2°53.385 9.3 343 8.2 102970 81
2007-11-27 08:03:45 51°14.062 2°53.36 9 279 8.2 102970 81
2007-11-27 08:03:50 51°14.051 2°53.335 8.4 343 8.2 102970 81
2007-11-27 08:03:55 51°14.042 2°53.31 8.9 283 8.2 102970 81
2007-11-27 08:04:00 51°14.032 2°53.284 9.5 343 8.2 102970 81
2007-11-27 08:04:05 51°14.023 2°53.257 8.4 283 8.2 102970 81
2007-11-27 08:04:10 51°14.015 2°53.231 9.5 340 8.2 102970 81
2007-11-27 08:04:15 51°14.008 2°53.203 8.5 280 8.2 102970 81
2007-11-27 08:04:20 51°14.001 2°53.175 9.3 342 8.2 102970 81
2007-11-27 08:04:25 51°13.995 2°53.147 9.9 281 8.2 102970 81
2007-11-27 08:04:30 51°13.988 2°53.119 9.7 340 8.2 102970 81
2007-11-27 08:04:35 51°13.981 2°53.091 8.9 280 8.2 102970 81
2007-11-27 08:04:40 51°13.974 2°53.064 8.8 342 8.2 102970 81
2007-11-27 08:04:45 51°13.965 2°53.037 8.9 280 8.2 102970 81
2007-11-27 08:04:50 51°13.956 2°53.012 8.5 343 8.2 102970 81
2007-11-27 08:04:55 51°13.946 2°52.987 8.9 280 8.2 102970 81
2007-11-27 08:05:00 51°13.935 2°52.962 8.7 343 8.2 102970 81
2007-11-27 08:05:05 51°13.925 2°52.937 8.1 284 8.2 102970 81
2007-11-27 08:05:10 51°13.915 2°52.914 8.9 344 8.2 102970 81
2007-11-27 08:05:15 51°13.906 2°52.891 8.5 345 8.2 102970 81
2007-11-27 08:05:20 51°13.897 2°52.869 8.4 343 8.2 102970 81
2007-11-27 08:05:25 51°13.889 2°52.847 8.3 283 8.2 102970 81
2007-11-27 08:05:30 51°13.882 2°52.827 7.8 343 8.2 102970 81
2007-11-27 08:05:35 51°13.876 2°52.806 7.7 284 8.2 102980 81
2007-11-27 08:05:40 51°13.87 2°52.787 7.3 344 8.2 102980 81
2007-11-27 08:05:45 51°13.866 2°52.768 7.4 283 8.2 102980 81
2007-11-27 08:05:50 51°13.861 2°52.75 7.3 344 8.2 102980 81
2007-11-27 08:05:55 51°13.857 2°52.732 6.6 281 8.1 102980 80
2007-11-27 08:06:00 51°13.853 2°52.715 7.2 342 8.1 102980 80
2007-11-27 08:06:05 51°13.848 2°52.698 7.2 285 8.1 102980 80
2007-11-27 08:06:10 51°13.845 2°52.681 6.7 340 8.1 102980 81
2007-11-27 08:06:15 51°13.841 2°52.665 7 347 8.1 102980 81
2007-11-27 08:06:20 51°13.837 2°52.65 6.2 346 8.1 102980 81
2007-11-27 08:06:25 51°13.832 2°52.636 5.7 349 8.1 102970 81
2007-11-27 08:06:30 51°13.827 2°52.623 5.6 350 8.1 102970 81
2007-11-27 08:06:35 51°13.822 2°52.612 5.5 354 8.2 102970 81
2007-11-27 08:06:40 51°13.817 2°52.602 5.3 355 8.2 102970 81
2007-11-27 08:06:45 51°13.811 2°52.592 5 360 8.1 102980 81
2007-11-27 08:06:50 51°13.805 2°52.583 4.5 358 8.1 102980 81
2007-11-27 08:06:55 51°13.799 2°52.576 3.9 5 8.1 102970 80
2007-11-27 08:07:00 51°13.792 2°52.569 3.8 7 8.1 102970 80
2007-11-27 08:07:05 51°13.785 2°52.564 4.4 9 8.1 102980 80
2007-11-27 08:07:10 51°13.778 2°52.559 4.1 12 8.1 102970 80
2007-11-27 08:07:15 51°13.772 2°52.555 3.8 18 8.1 102970 80
2007-11-27 08:07:20 51°13.765 2°52.553 3.3 17 8.1 102970 81
2007-11-27 08:07:25 51°13.758 2°52.55 2.8 26 8.1 102970 81
2007-11-27 08:07:30 51°13.751 2°52.55 2.8 27 8.1 102970 81
2007-11-27 08:07:35 51°13.744 2°52.551 3 29 8.1 102980 81
2007-11-27 08:07:40 51°13.738 2°52.552 2.5 35 8.1 102980 81
2007-11-27 08:07:45 51°13.732 2°52.554 2.3 40 8.1 102980 81
2007-11-27 08:07:50 51°13.726 2°52.557 2.1 38 8.1 102980 81
2007-11-27 08:07:55 51°13.721 2°52.561 2.1 80 8.1 102980 81
2007-11-27 08:08:00 51°13.716 2°52.565 1.7 35 8.1 102980 81
2007-11-27 08:08:05 51°13.713 2°52.571 1 77 8.1 102980 81
2007-11-27 08:08:10 51°13.709 2°52.576 1 262 8.1 102980 81
2007-11-27 08:08:15 51°13.706 2°52.582 3 286 8.1 102980 81
2007-11-27 08:08:20 51°13.704 2°52.588 2 268 8.1 102980 80
2007-11-27 08:08:25 51°13.702 2°52.595 1.6 283 8.1 102980 80
2007-11-27 08:08:30 51°13.701 2°52.601 2.3 267 8.1 102980 80
2007-11-27 08:08:35 51°13.701 2°52.607 2.3 281 8.1 102980 81
2007-11-27 08:08:40 51°13.701 2°52.613 3.2 259 8.1 102980 81
2007-11-27 08:08:45 51°13.702 2°52.619 3.8 280 8.1 102980 81
2007-11-27 08:08:50 51°13.703 2°52.624 3.3 255 8.1 102980 81
2007-11-27 08:08:55 51°13.705 2°52.63 3.9 280 8.1 102980 81
2007-11-27 08:09:00 51°13.707 2°52.637 4 250 8.1 102980 81
2007-11-27 08:09:05 51°13.709 2°52.643 4 278 8.1 102980 81
2007-11-27 08:09:10 51°13.712 2°52.65 3.2 249 8.1 102980 81
2007-11-27 08:09:15 51°13.714 2°52.657 3.5 279 8.1 102980 81
2007-11-27 08:09:20 51°13.717 2°52.665 3.9 250 8.1 102980 81
2007-11-27 08:09:25 51°13.72 2°52.673 3.9 281 8.1 102980 81
2007-11-27 08:09:30 51°13.723 2°52.682 3.7 246 8.1 102980 81
2007-11-27 08:09:35 51°13.726 2°52.691 3.8 282 8.1 102980 81
2007-11-27 08:09:40 51°13.729 2°52.702 3.6 243 8.1 102980 81
2007-11-27 08:09:45 51°13.733 2°52.713 4.2 280 8.1 102980 81
2007-11-27 08:09:50 51°13.737 2°52.725 4.7 240 8.1 102980 81
2007-11-27 08:09:55 51°13.741 2°52.739 3.8 281 8.2 102980 81
2007-11-27 08:10:00 51°13.745 2°52.752 3.8 239 8.1 102980 81
2007-11-27 08:10:05 51°13.75 2°52.765 3.9 284 8.1 102980 81
2007-11-27 08:10:10 51°13.755 2°52.779 4.5 236 8.1 102980 81
2007-11-27 08:10:15 51°13.761 2°52.793 4.3 281 8.1 102980 81
2007-11-27 08:10:20 51°13.766 2°52.808 3.9 236 8.1 102970 81
2007-11-27 08:10:25 51°13.772 2°52.822 4.4 281 8.1 102970 81
2007-11-27 08:10:30 51°13.776 2°52.838 5 235 8.1 102970 81
2007-11-27 08:10:35 51°13.782 2°52.854 5.2 284 8.2 102970 81
2007-11-27 08:10:40 51°13.787 2°52.869 3.9 236 8.2 102970 81
2007-11-27 08:10:45 51°13.792 2°52.885 4 281 8.2 102970 81
2007-11-27 08:10:50 51°13.797 2°52.902 4.6 37 8.2 102970 81
2007-11-27 08:10:55 51°13.803 2°52.918 4.6 282 8.2 102980 81
2007-11-27 08:11:00 51°13.808 2°52.935 4.4 34 8.2 102980 81
2007-11-27 08:11:05 51°13.813 2°52.951 4.5 285 8.1 102980 81
2007-11-27 08:11:10 51°13.819 2°52.966 4.8 233 8.1 102970 81
2007-11-27 08:11:15 51°13.825 2°52.982 5.1 284 8.1 102970 81
2007-11-27 08:11:20 51°13.832 2°52.998 5.4 237 8.1 102980 81
2007-11-27 08:11:25 51°13.838 2°53.013 5.4 281 8.1 102980 81
2007-11-27 08:11:30 51°13.844 2°53.028 5.1 236 8.1 102980 81
2007-11-27 08:11:35 51°13.85 2°53.042 4.9 279 8.1 102980 81
2007-11-27 08:11:40 51°13.856 2°53.054 3.8 32 8.1 102980 81
2007-11-27 08:11:45 51°13.861 2°53.067 4.4 285 8.2 102970 81
2007-11-27 08:11:50 51°13.866 2°53.079 4.4 238 8.2 102970 81
2007-11-27 08:11:55 51°13.87 2°53.091 3.9 283 8.2 102980 81
2007-11-27 08:12:00 51°13.875 2°53.101 3.6 244 8.2 102980 81
2007-11-27 08:12:05 51°13.878 2°53.113 4 281 8.2 102980 81
2007-11-27 08:12:10 51°13.881 2°53.123 3.4 247 8.2 102980 81
2007-11-27 08:12:15 51°13.883 2°53.133 2.9 278 8.2 102980 81
2007-11-27 08:12:20 51°13.885 2°53.144 2.7 250 8.2 102970 81
2007-11-27 08:12:25 51°13.888 2°53.154 2.7 283 8.2 102970 81
2007-11-27 08:12:30 51°13.89 2°53.163 3.4 254 8.2 102970 81
2007-11-27 08:12:35 51°13.892 2°53.172 2.1 284 8.2 102980 81
2007-11-27 08:12:40 51°13.893 2°53.181 4.1 258 8.2 102980 81
2007-11-27 08:12:45 51°13.895 2°53.19 2.6 280 8.2 102980 81
2007-11-27 08:12:50 51°13.897 2°53.198 2.8 256 8.2 102980 81
2007-11-27 08:12:55 51°13.899 2°53.206 2.7 282 8.2 102980 81
2007-11-27 08:13:00 51°13.901 2°53.214 3.2 255 8.2 102980 81
2007-11-27 08:13:05 51°13.903 2°53.221 3.4 285 8.2 102980 81
2007-11-27 08:13:10 51°13.905 2°53.228 2.8 255 8.2 102980 81
2007-11-27 08:13:15 51°13.907 2°53.234 3.4 279 8.2 102980 81
2007-11-27 08:13:20 51°13.909 2°53.241 2.8 253 8.2 102980 81
2007-11-27 08:13:25 51°13.911 2°53.247 3.4 283 8.2 102990 81
2007-11-27 08:13:30 51°13.913 2°53.253 2.9 258 8.2 102980 81
2007-11-27 08:13:35 51°13.915 2°53.258 2.6 279 8.2 102980 81
2007-11-27 08:13:40 51°13.917 2°53.264 2.7 257 8.2 102980 81
2007-11-27 08:13:45 51°13.919 2°53.268 2.5 281 8.2 102980 81
2007-11-27 08:13:50 51°13.92 2°53.273 2.7 260 8.2 102980 81
2007-11-27 08:13:55 51°13.922 2°53.278 2.4 286 8.2 102980 81
2007-11-27 08:14:00 51°13.923 2°53.282 2.8 259 8.2 102980 81
2007-11-27 08:14:05 51°13.924 2°53.287 2.2 285 8.2 102980 81
2007-11-27 08:14:10 51°13.925 2°53.291 3.7 257 8.2 102980 81
2007-11-27 08:14:15 51°13.927 2°53.295 2.9 286 8.2 102980 81
2007-11-27 08:14:20 51°13.928 2°53.298 3 253 8.2 102980 81
2007-11-27 08:14:25 51°13.93 2°53.301 3.8 282 8.2 102980 81
2007-11-27 08:14:30 51°13.933 2°53.303 3.3 249 8.2 102980 81
2007-11-27 08:14:35 51°13.935 2°53.305 3.4 283 8.2 102980 81
2007-11-27 08:14:40 51°13.938 2°53.307 3.7 246 8.2 102980 81
2007-11-27 08:14:45 51°13.94 2°53.307 4.4 285 8.2 102980 81
2007-11-27 08:14:50 51°13.943 2°53.308 3.9 244 8.2 102980 81
2007-11-27 08:14:55 51°13.946 2°53.307 3.7 285 8.2 102980 81
2007-11-27 08:15:00 51°13.949 2°53.306 4.7 32 8.2 102980 81
2007-11-27 08:15:05 51°13.953 2°53.304 4.3 285 8.2 102980 81
2007-11-27 08:15:10 51°13.956 2°53.303 4.5 34 8.2 102980 81
2007-11-27 08:15:15 51°13.959 2°53.3 4.6 285 8.2 102990 81
2007-11-27 08:15:20 51°13.962 2°53.297 4.2 37 8.2 102990 81
2007-11-27 08:15:25 51°13.965 2°53.293 4.8 284 8.2 102980 81
2007-11-27 08:15:30 51°13.968 2°53.289 5 32 8.2 102980 81
2007-11-27 08:15:35 51°13.972 2°53.285 5 280 8.2 102980 81
2007-11-27 08:15:40 51°13.975 2°53.281 4.5 33 8.2 102980 81
2007-11-27 08:15:45 51°13.978 2°53.277 5 281 8.2 102980 81
2007-11-27 08:15:50 51°13.98 2°53.273 4 32 8.2 102980 82
2007-11-27 08:15:55 51°13.983 2°53.269 4.7 281 8.2 102980 82
2007-11-27 08:16:00 51°13.985 2°53.265 4.6 36 8.2 102980 82
2007-11-27 08:16:05 51°13.988 2°53.262 4.1 279 8.2 102980 82
2007-11-27 08:16:10 51°13.99 2°53.258 4.2 36 8.2 102970 81
2007-11-27 08:16:15 51°13.992 2°53.254 4.7 286 8.2 102970 81
2007-11-27 08:16:20 51°13.994 2°53.25 4 35 8.2 102980 81
2007-11-27 08:16:25 51°13.996 2°53.246 4.8 285 8.2 102980 81
2007-11-27 08:16:30 51°13.998 2°53.242 4.7 32 8.2 102980 81
2007-11-27 08:16:35 51°13.999 2°53.238 4.7 283 8.2 102980 81
2007-11-27 08:16:40 51°14.001 2°53.234 4 32 8.2 102980 82
2007-11-27 08:16:45 51°14.002 2°53.23 3.9 283 8.2 102980 82
2007-11-27 08:16:50 51°14.003 2°53.226 4.4 38 8.2 102980 82
2007-11-27 08:16:55 51°14.004 2°53.223 3.8 285 8.2 102980 81
2007-11-27 08:17:00 51°14.005 2°53.218 4 37 8.2 102980 81
2007-11-27 08:17:05 51°14.006 2°53.214 4.3 280 8.2 102980 81
2007-11-27 08:17:10 51°14.007 2°53.21 4.5 39 8.2 102980 81
2007-11-27 08:17:15 51°14.008 2°53.206 4.2 279 8.2 102980 81
2007-11-27 08:17:20 51°14.009 2°53.202 4.2 36 8.2 102980 81
2007-11-27 08:17:25 51°14.01 2°53.198 4.4 279 8.2 102980 81
2007-11-27 08:17:30 51°14.011 2°53.194 3.7 38 8.2 102980 82
2007-11-27 08:17:35 51°14.011 2°53.19 4.3 282 8.2 102980 82
2007-11-27 08:17:40 51°14.012 2°53.186 4.2 318 8.2 102980 82
2007-11-27 08:17:45 51°14.012 2°53.182 3.6 284 8.2 102990 82
2007-11-27 08:17:50 51°14.013 2°53.178 3.9 39 8.2 102990 82
2007-11-27 08:17:55 51°14.013 2°53.174 3.8 279 8.2 102980 82
2007-11-27 08:18:00 51°14.014 2°53.171 3.9 318 8.2 102980 82
2007-11-27 08:18:05 51°14.014 2°53.166 3.9 283 8.2 102980 82
2007-11-27 08:18:10 51°14.014 2°53.162 3.6 316 8.2 102980 82
2007-11-27 08:18:15 51°14.014 2°53.158 3.5 279 8.2 102980 82
2007-11-27 08:18:20 51°14.014 2°53.154 3.8 316 8.2 102980 82
2007-11-27 08:18:25 51°14.014 2°53.151 4 280 8.2 102980 82
2007-11-27 08:18:30 51°14.014 2°53.146 3.3 321 8.2 102980 82
2007-11-27 08:18:35 51°14.014 2°53.142 4.1 279 8.2 102980 82
2007-11-27 08:18:40 51°14.014 2°53.139 2.6 315 8.2 102980 82
2007-11-27 08:18:45 51°14.014 2°53.135 4.4 284 8.2 102980 82
2007-11-27 08:18:50 51°14.014 2°53.13 3.8 317 8.2 102980 82
2007-11-27 08:18:55 51°14.015 2°53.125 4.6 282 8.2 102980 82
2007-11-27 08:19:00 51°14.016 2°53.119 4.1 319 8.2 102980 82
2007-11-27 08:19:05 51°14.017 2°53.113 4.8 279 8.2 102980 82
2007-11-27 08:19:10 51°14.018 2°53.107 4.5 318 8.2 102980 82
2007-11-27 08:19:15 51°14.02 2°53.101 5.4 279 8.2 102980 82
2007-11-27 08:19:20 51°14.022 2°53.094 4.5 318 8.2 102980 82
2007-11-27 08:19:25 51°14.024 2°53.088 5.2 285 8.2 102980 82
2007-11-27 08:19:30 51°14.026 2°53.081 4.3 315 8.2 102980 82
2007-11-27 08:19:35 51°14.027 2°53.076 4.9 281 8.2 102980 82
2007-11-27 08:19:40 51°14.028 2°53.071 4 37 8.2 102980 82
2007-11-27 08:19:45 51°14.028 2°53.066 4.1 282 8.2 102980 82
2007-11-27 08:19:50 51°14.028 2°53.063 4.2 37 8.2 102980 82
2007-11-27 08:19:55 51°14.028 2°53.059 4.1 284 8.2 102980 82
2007-11-27 08:20:00 51°14.027 2°53.056 3.3 237 8.2 102980 82
2007-11-27 08:20:05 51°14.026 2°53.053 3.5 285 8.2 102980 82
2007-11-27 08:20:10 51°14.025 2°53.05 3.3 236 8.2 102990 82
2007-11-27 08:20:15 51°14.023 2°53.047 4.1 280 8.2 102990 82
2007-11-27 08:20:20 51°14.022 2°53.044 3.3 241 8.2 102980 82
2007-11-27 08:20:25 51°14.021 2°53.042 4.1 279 8.2 102980 82
2007-11-27 08:20:30 51°14.019 2°53.039 4.1 242 8.2 102990 82